CST,Max TemperatureF,Mean TemperatureF,Min TemperatureF,Max Dew PointF,MeanDew PointF,Min DewpointF,Max Humidity, Mean Humidity, Min Humidity, Max Sea Level PressureIn, Mean Sea Level PressureIn, Min Sea Level PressureIn, Max VisibilityMiles, Mean VisibilityMiles, Min VisibilityMiles, Max Wind SpeedMPH, Mean Wind SpeedMPH, Max Gust SpeedMPH,PrecipitationIn, CloudCover, Events, WindDirDegrees
2013-2-1,19,5,-9,12,-3,-15,80,67,53,30.42,30.22,29.96,10,10,8,22,9,26,T,4,,217
2013-2-2,30,17,4,24,11,0,87,77,67,30.22,30.07,29.92,10,7,1,35,13,43,T,6,Snow,280
2013-2-3,27,19,10,18,12,6,84,75,65,30.16,30.02,29.81,10,9,2,35,11,41,T,6,Snow,352
2013-2-4,23,16,8,17,10,3,91,76,61,30.08,29.96,29.83,10,9,4,22,10,25,T,4,Snow,1
2013-2-5,37,25,13,29,22,10,88,79,70,30.12,29.92,29.74,10,9,5,22,11,29,0.00,6,,303
2013-2-6,43,27,11,33,24,9,92,79,65,30.12,29.99,29.88,10,9,7,28,11,36,0.00,2,,174
2013-2-7,33,28,23,29,23,20,100,91,81,30.29,30.09,29.93,10,4,1,22,15,26,0.00,7,,352
2013-2-8,30,26,22,22,19,17,88,79,69,30.38,30.29,30.17,10,9,5,24,11,29,0.00,7,,142
2013-2-9,36,30,24,29,25,21,92,84,75,30.22,30.01,29.83,8,6,3,28,20,36,0.00,8,,160
2013-2-10,36,32,27,36,30,24,100,93,85,29.81,29.43,29.20,10,3,0,31,18,37,0.43,8,Fog-Rain-Snow-Thunderstorm,138
2013-2-11,27,23,19,25,19,12,92,80,68,30.13,29.85,29.48,10,4,1,37,23,45,0.00,8,Snow,302
2013-2-12,37,27,17,28,21,15,84,77,69,30.13,29.98,29.88,10,10,9,16,10,21,0.00,1,,244
2013-2-13,43,33,23,34,27,20,88,79,70,29.87,29.73,29.61,10,10,10,25,10,33,T,4,,256
2013-2-14,36,25,13,28,23,4,92,80,67,30.27,29.93,29.67,10,7,1,30,18,37,T,6,Snow,325
2013-2-15,21,15,9,12,8,2,84,76,67,30.38,30.34,30.28,10,10,10,20,11,25,0.00,1,,322
2013-2-16,29,18,7,20,13,4,96,83,69,30.33,30.18,30.09,10,9,4,10,6,13,0.00,3,,170
2013-2-17,38,28,18,29,22,15,92,78,64,30.08,29.86,29.59,10,10,7,28,17,33,0.00,0,,161
2013-2-18,35,20,4,30,12,-2,85,76,67,29.99,29.79,29.56,10,6,1,36,20,44,T,6,Snow,312
2013-2-19,12,5,-3,0,-5,-9,79,71,63,30.47,30.16,29.93,10,9,2,38,23,51,T,4,,321
2013-2-20,19,7,-5,7,-2,-11,82,66,49,30.51,30.45,30.38,10,10,10,16,8,18,0.00,0,,40
2013-2-21,26,17,7,16,9,3,92,69,46,30.40,30.20,29.95,10,7,0,25,13,29,0.01,3,Fog-Snow,71
2013-2-22,23,15,7,18,14,6,92,85,77,29.99,29.90,29.84,10,4,0,18,12,23,T,8,Fog-Snow,344
2013-2-23,22,10,-2,16,6,-3,95,84,73,29.99,29.94,29.88,10,7,0,10,5,12,T,1,Fog-Snow,221
2013-2-24,25,11,-4,21,10,-6,91,86,80,30.13,30.05,29.94,6,3,0,8,3,9,0.00,6,Fog,53
2013-2-25,25,24,22,22,21,20,100,91,81,30.14,30.08,30.02,6,2,0,15,5,16,0.00,8,Fog,1
2013-2-26,27,23,19,23,20,17,96,89,81,30.03,29.93,29.85,6,3,0,21,15,25,0.00,5,Fog,4
2013-2-27,33,27,20,23,19,16,84,74,63,30.08,29.95,29.84,10,8,5,31,20,40,0.00,3,,335
2013-2-28,27,22,17,21,19,14,92,87,81,30.24,30.17,30.07,10,9,6,17,13,23,0.00,7,,329